• In Hungary
  • List of Countries
  • For 7 days
  • Water Temperature
  • Satellite Maps
  • Weather Map
  • News
  • Weather Widgets
  • user-avatar
    Login

    Hourly Weather Suhar

    Today, 18 October, Thursday

    Time Temperature Precipitation Wind Pressure Humidity
    00:00 +29°C° 0 mm 0 mps 758 mmHg 51%
    01:00 +30°C° 0 mm 1 mps 758 mmHg 52%
    02:00 +28°C° 0 mm 0 mps 758 mmHg 52%
    03:00 +27°C° 0 mm 0 mps 758 mmHg 52%
    04:00 +27°C° 0 mm 0 mps 758 mmHg 55%
    05:00 +30°C° 0 mm 1 mps 758 mmHg 52%
    06:00 +30°C° 0 mm 1 mps 758 mmHg 50%
    07:00 +31°C° 0 mm 1 mps 759 mmHg 48%
    08:00 +32°C° 0 mm 1 mps 759 mmHg 44%
    09:00 +33°C° 0 mm 1 mps 759 mmHg 39%
    10:00 +34°C° 0 mm 1 mps 759 mmHg 37%
    11:00 +36°C° 0 mm 2 mps 759 mmHg 36%
    12:00 +36°C° 0 mm 2 mps 758 mmHg 34%
    13:00 +37°C° 0 mm 3 mps 758 mmHg 33%
    14:00 +37°C° 0 mm 3 mps 757 mmHg 34%
    15:00 +36°C° 0 mm 3 mps 757 mmHg 36%
    16:00 +36°C° 0 mm 3 mps 757 mmHg 37%
    17:00 +35°C° 0 mm 2 mps 757 mmHg 41%
    18:00 +34°C° 0 mm 2 mps 757 mmHg 44%
    19:00 +32°C° 0 mm 1 mps 757 mmHg 47%
    20:00 +32°C° 0 mm 1 mps 758 mmHg 49%
    21:00 +31°C° 0 mm 1 mps 758 mmHg 51%
    22:00 +31°C° 0 mm 1 mps 758 mmHg 53%
    23:00 +31°C° 0 mm 1 mps 758 mmHg 52%

    Tomorrow, 19 October, Friday

    Time Temperature Precipitation Wind Pressure Humidity
    00:00 +31°C° 0 mm 1 mps 758 mmHg 51%
    01:00 +29°C° 0 mm 0 mps 758 mmHg 50%
    02:00 +31°C° 0 mm 1 mps 758 mmHg 49%
    03:00 +31°C° 0 mm 1 mps 758 mmHg 49%
    04:00 +31°C° 0 mm 1 mps 758 mmHg 48%
    05:00 +31°C° 0 mm 1 mps 758 mmHg 48%
    06:00 +31°C° 0 mm 2 mps 758 mmHg 48%
    07:00 +31°C° 0 mm 2 mps 759 mmHg 48%
    08:00 +32°C° 0 mm 2 mps 759 mmHg 44%
    09:00 +33°C° 0 mm 1 mps 759 mmHg 41%
    10:00 +34°C° 0 mm 1 mps 760 mmHg 38%
    11:00 +34°C° 0 mm 1 mps 760 mmHg 36%
    12:00 +36°C° 0 mm 2 mps 759 mmHg 34%
    13:00 +37°C° 0 mm 3 mps 759 mmHg 32%
    14:00 +36°C° 0.1 mm 3 mps 759 mmHg 34%
    15:00 +36°C° 0.1 mm 3 mps 758 mmHg 36%
    16:00 +35°C° 0.1 mm 3 mps 758 mmHg 38%
    17:00 +34°C° 0.1 mm 3 mps 758 mmHg 41%
    18:00 +32°C° 0.1 mm 2 mps 759 mmHg 45%
    19:00 +32°C° 0.1 mm 1 mps 759 mmHg 49%
    20:00 +31°C° 0 mm 1 mps 759 mmHg 51%
    21:00 +31°C° 0 mm 1 mps 759 mmHg 52%
    22:00 +31°C° 0 mm 1 mps 760 mmHg 54%
    23:00 +31°C° 0 mm 1 mps 760 mmHg 53%

    Day after tomorrow, 20 October, Saturday

    Time Temperature Precipitation Wind Pressure Humidity
    00:00 +30°C° 0 mm 1 mps 759 mmHg 52%
    01:00 +28°C° 0 mm 0 mps 759 mmHg 52%
    02:00 +28°C° 0 mm 0 mps 759 mmHg 52%
    03:00 +28°C° 0 mm 0 mps 759 mmHg 53%
    04:00 +30°C° 0 mm 1 mps 759 mmHg 53%
    05:00 +30°C° 0 mm 1 mps 759 mmHg 53%
    06:00 +30°C° 0 mm 1 mps 760 mmHg 53%
    07:00 +30°C° 0 mm 1 mps 760 mmHg 53%
    08:00 +31°C° 0 mm 1 mps 760 mmHg 49%
    09:00 +33°C° 0 mm 1 mps 761 mmHg 45%
    10:00 +34°C° 0 mm 1 mps 761 mmHg 41%
    11:00 +36°C° 0 mm 2 mps 760 mmHg 39%
    12:00 +36°C° 0 mm 3 mps 760 mmHg 37%
    13:00 +37°C° 0 mm 3 mps 759 mmHg 35%
    14:00 +36°C° 0.2 mm 3 mps 759 mmHg 38%
    15:00 +36°C° 0.2 mm 3 mps 759 mmHg 41%
    16:00 +35°C° 0.2 mm 3 mps 759 mmHg 44%
    17:00 +34°C° 0 mm 3 mps 759 mmHg 47%
    18:00 +34°C° 0 mm 3 mps 759 mmHg 50%
    19:00 +32°C° 0 mm 2 mps 759 mmHg 53%
    20:00 +32°C° 0 mm 2 mps 760 mmHg 55%
    21:00 +32°C° 0 mm 1 mps 760 mmHg 56%
    22:00 +31°C° 0 mm 1 mps 760 mmHg 58%
    23:00 +31°C° 0 mm 1 mps 760 mmHg 59%

    21 October, Sunday

    Time Temperature Precipitation Wind Pressure Humidity
    00:00 +31°C° 0 mm 1 mps 760 mmHg 59%
    01:00 +28°C° 0 mm 0 mps 760 mmHg 60%
    02:00 +28°C° 0 mm 0 mps 760 mmHg 61%
    03:00 +30°C° 0 mm 1 mps 760 mmHg 61%
    04:00 +30°C° 0 mm 1 mps 759 mmHg 62%
    05:00 +30°C° 0 mm 1 mps 760 mmHg 61%
    06:00 +30°C° 0 mm 1 mps 760 mmHg 59%
    07:00 +31°C° 0 mm 1 mps 761 mmHg 58%
    08:00 +32°C° 0 mm 1 mps 761 mmHg 53%
    09:00 +33°C° 0 mm 1 mps 761 mmHg 48%
    10:00 +34°C° 0 mm 1 mps 761 mmHg 44%
    11:00 +36°C° 0 mm 2 mps 761 mmHg 41%
    12:00 +37°C° 0 mm 3 mps 760 mmHg 39%
    13:00 +38°C° 0 mm 4 mps 759 mmHg 37%
    14:00 +37°C° 0 mm 4 mps 759 mmHg 41%
    15:00 +36°C° 0 mm 4 mps 759 mmHg 46%
    16:00 +35°C° 0 mm 4 mps 759 mmHg 50%
    17:00 +34°C° 0.3 mm 3 mps 759 mmHg 52%
    18:00 +34°C° 0.3 mm 3 mps 759 mmHg 54%
    19:00 +34°C° 0.3 mm 2 mps 760 mmHg 56%
    20:00 +32°C° 0 mm 2 mps 760 mmHg 57%
    21:00 +32°C° 0 mm 1 mps 760 mmHg 57%
    22:00 +32°C° 0 mm 1 mps 761 mmHg 57%
    23:00 +32°C° 0 mm 1 mps 760 mmHg 58%

    22 October, Monday

    Time Temperature Precipitation Wind Pressure Humidity
    00:00 +29°C° 0 mm 0 mps 760 mmHg 59%
    01:00 +29°C° 0 mm 0 mps 760 mmHg 60%
    02:00 +29°C° 0 mm 0 mps 760 mmHg 59%
    03:00 +28°C° 0 mm 0 mps 759 mmHg 59%
    04:00 +28°C° 0 mm 0 mps 759 mmHg 59%
    05:00 +31°C° 0 mm 1 mps 760 mmHg 57%
    06:00 +31°C° 0 mm 1 mps 760 mmHg 55%
    07:00 +31°C° 0 mm 1 mps 761 mmHg 52%
    08:00 +33°C° 0 mm 1 mps 761 mmHg 47%
    09:00 +34°C° 0 mm 1 mps 761 mmHg 42%
    10:00 +36°C° 0 mm 2 mps 761 mmHg 37%
    11:00 +37°C° 0 mm 2 mps 761 mmHg 35%
    12:00 +38°C° 0 mm 3 mps 760 mmHg 33%
    13:00 +38°C° 0 mm 3 mps 759 mmHg 31%
    14:00 +38°C° 0 mm 4 mps 759 mmHg 34%
    15:00 +37°C° 0 mm 4 mps 759 mmHg 38%
    16:00 +36°C° 0 mm 4 mps 758 mmHg 41%
    17:00 +36°C° 0 mm 4 mps 759 mmHg 43%
    18:00 +35°C° 0 mm 3 mps 759 mmHg 44%
    19:00 +35°C° 0 mm 2 mps 759 mmHg 46%
    20:00 +35°C° 0 mm 2 mps 759 mmHg 47%
    21:00 +33°C° 0 mm 1 mps 760 mmHg 47%
    22:00 +33°C° 0 mm 1 mps 760 mmHg 48%
    23:00 +32°C° 0 mm 1 mps 760 mmHg 49%

    23 October, Tuesday

    Time Temperature Precipitation Wind Pressure Humidity
    00:00 +32°C° 0 mm 1 mps 759 mmHg 50%
    01:00 +31°C° 0 mm 1 mps 759 mmHg 52%
    02:00 +29°C° 0 mm 0 mps 759 mmHg 53%
    03:00 +29°C° 0 mm 0 mps 759 mmHg 54%
    04:00 +28°C° 0 mm 0 mps 759 mmHg 55%
    05:00 +31°C° 0 mm 1 mps 759 mmHg 51%
    06:00 +31°C° 0 mm 1 mps 760 mmHg 48%
    07:00 +32°C° 0 mm 1 mps 760 mmHg 45%
    08:00 +34°C° 0 mm 2 mps 760 mmHg 39%
    09:00 +36°C° 0 mm 2 mps 760 mmHg 33%
    10:00 +38°C° 0 mm 2 mps 761 mmHg 27%
    11:00 +38°C° 0 mm 2 mps 760 mmHg 26%
    12:00 +39°C° 0 mm 3 mps 759 mmHg 24%
    13:00 +40°C° 0 mm 3 mps 759 mmHg 23%
    14:00 +40°C° 0 mm 4 mps 758 mmHg 25%
    15:00 +40°C° 0 mm 4 mps 758 mmHg 27%
    16:00 +38°C° 0 mm 4 mps 758 mmHg 29%
    17:00 +37°C° 0 mm 3 mps 758 mmHg 34%
    18:00 +36°C° 0 mm 2 mps 759 mmHg 39%
    19:00 +35°C° 0 mm 2 mps 759 mmHg 43%
    20:00 +33°C° 0 mm 1 mps 759 mmHg 46%
    21:00 +33°C° 0 mm 1 mps 759 mmHg 49%
    22:00 +30°C° 0 mm 0 mps 760 mmHg 51%
    23:00 +30°C° 0 mm 0 mps 759 mmHg 53%
    Show more